Location: Caltech
(34.1382°N, 118.1253°W)
Time: 02:24:28
(UTC-07:00)

NOSS 3-2 (A) - Visible Passes

Search period start: 31 July 2015 00:00
Search period end: 10 August 2015 00:00
Orbit: 919 x 1290 km, 63.4° (Epoch: 30 July)

Date Brightness Start Highest point End Pass type
(mag) Time Alt. Az. Time Alt. Az. Time Alt. Az.
31 Jul 3.6 23:16:19 69° NNW 23:16:19 69° NNW 23:22:16 10° NNE visible
01 Aug 6.0 01:04:34 10° WNW 01:07:57 14° NW 01:11:12 10° N visible
01 Aug 3.5 22:31:08 60° E 22:31:08 60° E 22:36:51 10° NE visible
02 Aug 5.6 00:18:24 14° W 00:21:57 22° NW 00:26:51 10° N visible
02 Aug 3.9 21:45:27 36° ESE 21:45:27 36° ESE 21:51:06 10° NE visible
02 Aug 4.9 23:32:41 20° W 23:36:09 34° NW 23:42:03 10° NNE visible
03 Aug 6.7 05:17:06 10° NNE 05:19:48 12° NNE 05:22:57 10° ENE visible
03 Aug 4.6 20:58:33 18° SE 21:00:14 20° ESE 21:04:46 10° ENE visible
03 Aug 4.0 22:45:34 15° SW 22:50:34 56° NW 22:57:00 10° NNE visible
04 Aug 6.3 00:41:12 10° NW 00:43:12 11° NNW 00:44:56 10° NNW visible
04 Aug 3.3 21:59:05 10° SSW 22:05:11 86° ESE 22:11:44 10° NNE visible
04 Aug 6.0 23:52:56 10° W 23:57:05 17° NW 00:01:12 10° N visible
05 Aug 6.4 05:35:29 10° N 05:41:06 23° NE 05:47:12 10° E visible
05 Aug 3.6 21:14:11 10° S 21:19:58 49° ESE 21:26:11 10° NE visible
05 Aug 5.4 23:05:57 10° WSW 23:11:10 27° NW 23:16:35 10° N visible
06 Aug 6.6 04:51:03 10° N 04:55:03 15° NE 04:59:32 10° ENE visible
06 Aug 4.2 20:29:55 10° SSE 20:34:52 28° ESE 20:40:12 10° NE visible
06 Aug 4.6 22:19:38 10° WSW 22:25:28 43° NW 22:31:40 10° NNE visible
07 Aug 7.0 04:08:24 10° NNE 04:08:49 10° NNE 04:09:38 10° NE visible
07 Aug 3.7 21:33:53 10° SW 21:39:59 72° WNW 21:46:31 10° NNE visible
07 Aug 6.3 23:29:02 10° WNW 23:32:16 14° NW 23:35:21 10° N visible
08 Aug 6.1 05:09:57 10° N 05:16:11 29° NE 05:22:54 10° ESE visible
08 Aug 3.4 20:48:40 10° SSW 20:54:41 68° ESE 21:01:08 10° NE visible
08 Aug 5.9 22:41:31 10° W 22:46:15 21° NW 22:51:03 10° N visible
09 Aug 6.5 04:25:18 10° N 04:30:15 19° NE 04:35:41 10° E visible
09 Aug 3.9 20:04:02 10° S 20:09:32 38° ESE 20:15:25 10° NE visible
09 Aug 5.2 21:54:53 10° WSW 22:00:26 33° NW 22:06:16 10° NNE visible
